Tracking 29892 objects as of 21-Nov-2024
HD Live streaming from Space Station
objects crossing your sky now

STARLINK-3833

Track STARLINK-3833 now!
10-day predictions
STARLINK-3833 is classified as:


NORAD ID: 52578
Int'l Code: 2022-051AU
Perigee: 546.0 km
Apogee: 547.7 km
Inclination: 53.2 °
Period: 95.4 minutes
Semi major axis: 6917 km
RCS: Unknown
Launch date: May 13, 2022
Source: United States (US)
Launch site: AIR FORCE WESTERN TEST RANGE (AFWTR)
Your satellite tracking list
Your tracking list is empty




NASA's NSSDC Master Catalog

Two Line Element Set (TLE):
1 52578U 22051AU  24325.78583410  .00003793  00000-0  25615-3 0  9993
2 52578  53.2158 101.5561 0001273  91.2827 268.8311 15.08853622139837
Source of the keplerian elements: AFSPC